Zurück zum Katalog

STARLINK-37455

AktivKommunikationSSO
NORAD 69299·PAYLOAD·🇺🇸 United States

Gestartet May 30, 2026 von Vandenberg Space Force Base

Loading…

Nächste Überflüge (nächste 24 Stunden)

TLE

AktuellSource: CelesTrak SupGP

Epoche: Sep 14, 2026, 22:46 UTC

1 69299C 26119D   26257.94909722  .00070800  00000+0  21994-2 0  2576
2 69299  97.2824 282.7117 0001436  99.7053  98.7589 15.33379748    11

Verfolge STARLINK-37455 in Echtzeit mit AllMySat

Download on the App Store